Regional Weather Roundup
Issued by NWS Newport/Morehead, NC

Current Version | Previous Version | Graphics & Text | Print | Product List | Glossary Off
Versions: 1 2 3 4 5 6 7 8 9 10 11 12 13 14 15 16 17 18 19 20 21 22 23 24 25 26 27 28 29 30 31 32 33 34 35 36 37 38 39 40 41 42 43 44 45 46 47 48 49 50

893
ASUS42 KMHX 210925
RWRMHX
WEATHER ROUNDUP FOR EASTERN NORTH CAROLINA
NATIONAL WEATHER SERVICE NEWPORT/MOREHEAD CITY NC
400 AM EST WED FEB 21 2018

NOTE: "FAIR" INDICATES FEW OR NO CLOUDS BELOW 12,000 FEET
WITH NO SIGNIFICANT WEATHER AND/OR OBSTRUCTIONS TO VISIBILITY

NCZ015>017-031-032-045>047-102-103-211000-
NORTH COAST

CITY           SKY/WX    TMP DP  RH WIND       PRES   REMARKS
EDENTON        FOG       63  63 100 CALM      30.46S VSB 1/2
ELIZABETH CITY MOCLDY    64  64 100 S7        30.45S
KITTY HAWK     FAIR     N/A N/A N/A CALM      30.45S HAZE
MANTEO         FOG       57  57 100 S7        30.47S VSB 3/4

$$

NCZ045>047-081-094-103-104-211000-
CENTRAL COAST

CITY           SKY/WX    TMP DP  RH WIND       PRES   REMARKS
FRISCO         CLOUDY    64  63  96 S3        30.47F FOG

$$

NCZ095-097-098-100-101-211000-
SOUTHERN COAST

CITY           SKY/WX    TMP DP  RH WIND       PRES   REMARKS
BEAUFORT       FAIR      64  63  96 S6        30.46S
CEDAR ISLAND   NOT AVBL
JACKSONVILLE   FOG       64  64 100 S5        30.45S VSB 3/4
PINEY ISLAND   NOT AVBL
WILMINGTON     FOG       57  57 100 CALM      30.45S VSB 1/4


$$

NCZ011>013-027>030-043-044-078>080-089-090>093-098-211000-
COASTAL PLAIN

CITY           SKY/WX    TMP DP  RH WIND       PRES   REMARKS
AHOSKIE        CLOUDY    63  63 100 CALM      30.44S
CLINTON        CLOUDY    61  61 100 CALM      30.45R VSB 1/2
ELIZABETHTOWN  NOT AVBL
GOLDSBORO      FAIR      63  61  94 CALM      30.43R FOG
GREENVILLE     CLOUDY    64  64 100 SW7       30.45R
HAVELOCK       CLOUDY    66  66 100 CALM      30.47S
KENANSVILLE    FOG       63  63 100 SE3       30.44S VSB 1/4
KINSTON        CLOUDY    64  64 100 S5        30.45S FOG
NEW BERN       FAIR      63  63 100 S3        30.46F FOG
RICHLANDS      FAIR      63  63 100 S3        30.46R
ROCKY MOUNT    CLOUDY    64  63  96 S6        30.44R FOG
WASHINGTON     FAIR      63  62  97 S3        30.45S FOG
WHITEVILLE     FAIR      65  64  96 S3        30.43S

$$

AMZ130-135-150-152-154-156-158-170-250-252-270-ANZ085-086-088-633-658-670-211000-
MARINE OBSERVATIONS

STATION/POSITION TIME  TEMP    WIND        PRES    WAVE   SWELL
                       AIR SEA DIR/SP/G            HT/PER HT/PER
                 (UTC) (F)     (DEG/KT/KT) (MB)    (FT/S) (FT/S)
CHESAPEAKE LIGHT NOT AVBL
64 E VA BEACH    0850   54 52  200/  8/ 10 1031.9    3/11   3/11
DUCK             0900   63 44  190/ 12/ 14 1030.7
2 E DUCK         0900      45                N/A     3/12   2/12
OREGON INLET     0900   59 58  180/  7/  8 1031.6
13E OREGON INLT  0848      47                N/A     4/11   3/11
HATTERAS CG      0900   65 59  180/  3/  4 1031.7
DIAMOND BUOY     0910   72 71  190/ 12/ 14 1032.2
CAPE LOOKOUT     0900          180/  7/  8 1031.8
BEAUFORT LAB     0900   61 56  190/  3/  4 1031.5
30 SE NEW RVR IN 0808   70 69  190/  6/  8 1031.5
30 SE NEW RVR IN 0900      69                N/A     4/ 6   2/12
27 SE WRIGHTSVLE 0808   69 69  180/  8/ 12 1031.3
5 SE WRIGHTSVLE  0908   61 56  170/  2/  6 1030.9
225 S CAPE HAT   0850   72 74  130/ 12/ 14 1032.2    5/11   3/11
41 SE CHARLESTON 0910   70 68  140/  6/  8 1030.0

$$




USA.gov is the U.S. government's official web portal to all federal, state and local government web resources and services.